Location: Martley
(52.2333°N, 2.3667°W)
Time: 18:33:24
(UTC+00:00)

CZ-2C R/B - Pass Details

Date: 11 December 2019
Orbit: 668 x 784 km, 98.1° (Epoch: 28 January)

Event Time Altitude Azimuth Distance (km) Brightness Sun altitude
Rises 06:46:39 0° 1° (N) 3,052 5.4 -11.6°
Reaches altitude 10° 06:50:28 10° 329° (NNW) 2,116 4.3 -11.0°
Enters shadow 06:50:47 11° 325° (NW) 2,077 4.2 -11.0°
